Location: Brachbach
(49.1847°N, 9.7240°E)
Time: 01:09:39
(UTC+00:00)

FENGYUN 3A - Pass Details

Date: 20 August 2024
Orbit: 822 x 834 km, 98.6° (Epoch: 07 September)

Event Time Altitude Azimuth Distance (km) Brightness Sun altitude
Rises 00:04:11 0° 31° (NNE) 3,390 7.9 -27.9°
Reaches altitude 10° 00:08:05 10° 59° (ENE) 2,447 6.6 -27.7°
Maximum altitude 00:10:26 13° 85° (E) 2,249 6.1 -27.6°
Enters shadow 00:12:29 11° 108° (ESE) 2,395 6.0 -27.6°
